1516806000.91,36508,6.75,73924.3,-2.65,-3.55,-3.43,0,*5E
1516806002.15,36509,6.75,73924.3,-2.65,-3.55,-3.59,0,*54
1516806003.39,36510,6.75,73926.3,-2.65,-3.47,-3.47,0,*50
1516806004.64,36511,6.75,73924.3,-2.65,-3.51,-3.43,0,*52
1516806005.83,36512,6.75,73922.5,-2.65,-3.39,-3.39,0,*52
1516806007.03,36513,6.75,73926.5,-2.65,-3.31,-3.31,0,*53
1516806008.25,36514,6.75,73926.5,-2.67,-3.35,-3.31,0,*52
1516806009.5,36515,6.75,73922.0,-2.67,-3.35,-3.43,0,*56
1516806010.76,36516,6.75,73916.3,-2.67,-3.43,-3.43,0,*54
1516806011.96,36517,6.75,73918.5,-2.65,-3.39,-3.31,0,*5F
1516806013.18,36518,6.75,73916.5,-2.67,-3.35,-3.35,0,*5A
1516806014.41,36519,6.75,73916.3,-2.67,-3.35,-3.31,0,*5F
1516806015.63,36520,6.75,73918.3,-2.67,-3.35,-3.31,0,*55
1516806016.85,36521,6.75,73914.3,-2.67,-3.35,-3.31,0,*54
1516806018.1,36522,6.75,73918.3,-2.67,-3.35,-3.43,0,*52
1516806019.37,36523,6.75,73918.3,-2.67,-3.47,-3.43,0,*56
1516806020.56,36524,6.75,73918.5,-2.65,-3.39,-3.39,0,*57
1516806021.76,36525,6.75,73918.3,-2.65,-3.39,-3.39,0,*56
1516806022.98,36526,6.75,73922.3,-2.65,-3.39,-3.43,0,*58
1516806024.2,36527,6.75,73920.0,-2.65,-3.47,-3.39,0,*5D
1516806025.4,36528,6.75,73922.3,-2.65,-3.31,-3.31,0,*5B
1516806026.62,36529,6.75,73918.8,-2.67,-3.35,-3.35,0,*58
1516806027.82,36530,6.75,73920.0,-2.65,-3.31,-3.31,0,*52
1516806029.02,36531,6.75,73914.8,-2.65,-3.39,-3.39,0,*53
1516806030.28,36532,6.75,73912.0,-2.67,-3.47,-3.47,0,*52
1516806031.55,36533,6.75,73918.0,-2.67,-3.43,-3.43,0,*53
1516806032.78,36534,6.75,73916.3,-2.67,-3.35,-3.35,0,*54
1516806034.02,36535,6.75,73916.5,-2.67,-3.35,-3.43,0,*54
1516806035.26,36536,6.75,73918.3,-2.67,-3.35,-3.47,0,*53
1516806036.48,36537,6.75,73914.8,-2.65,-3.39,-3.43,0,*58
1516806037.75,36538,6.75,73920.5,-2.67,-3.47,-3.47,0,*58
1516806038.99,36539,6.75,73922.3,-2.65,-3.43,-3.43,0,*5B
1516806040.22,36540,6.75,73926.5,-2.67,-3.31,-3.27,0,*50
1516806041.49,36541,6.75,73920.5,-2.67,-3.43,-3.47,0,*52
1516806042.75,36542,6.75,73920.0,-2.67,-3.47,-3.47,0,*55
1516806044.03,36543,6.75,73924.3,-2.67,-3.59,-3.59,0,*54
1516806045.26,36544,6.75,73916.8,-2.65,-3.71,-3.71,0,*51
1516806046.49,36545,6.75,73904.8,-2.67,-3.95,-3.95,0,*52
1516806047.72,36546,6.75,73908.0,-2.67,-3.95,-3.83,0,*56
1516806048.92,36547,6.75,73914.3,-2.69,-3.95,-3.95,0,*5E
1516806050.14,36548,6.75,73914.5,-2.69,-4.21,-4.21,0,*51
1516806051.34,36549,6.75,73912.8,-2.73,-4.21,-4.13,0,*5A
1516806052.54,36550,6.75,73904.0,-2.73,-4.05,-4.13,0,*54
1516806053.75,36551,6.75,73898.5,-2.73,-3.91,-3.87,0,*55
1516806055.0,36552,6.75,73892.8,-2.73,-4.01,-4.01,0,*51
1516806056.2,36553,6.75,73898.3,-2.73,-3.79,-3.91,0,*56
1516806057.4,36554,6.75,73904.0,-2.73,-3.87,-3.87,0,*57
1516806058.6,36555,6.75,73902.8,-2.73,-4.05,-4.05,0,*56
1516806059.8,36556,6.75,73904.8,-2.73,-4.05,-4.13,0,*52
1516806061.02,36557,6.75,73904.8,-2.75,-4.13,-4.05,0,*55
1516806062.24,36558,6.75,73904.8,-2.77,-4.05,-4.05,0,*5F
1516806063.47,36559,6.75,73908.8,-2.75,-3.79,-3.87,0,*5D
1516806064.7,36560,6.75,73908.5,-2.77,-3.83,-3.79,0,*51
1516806065.97,36561,6.75,73910.3,-2.77,-3.71,-3.71,0,*55
1516806067.24,36562,6.75,73912.0,-2.77,-3.67,-3.59,0,*5B
1516806068.5,36563,6.75,73912.8,-2.75,-3.55,-3.55,0,*55
1516806069.77,36564,6.75,73910.3,-2.77,-3.59,-3.55,0,*5C
1516806071.04,36565,6.75,73908.3,-2.77,-3.55,-3.59,0,*5D
1516806072.31,36566,6.75,73912.3,-2.75,-3.63,-3.55,0,*55
1516806073.57,36567,6.75,73910.3,-2.75,-3.55,-3.55,0,*51
1516806074.84,36568,6.75,73914.8,-2.77,-3.55,-3.59,0,*50
1516806076.11,36569,6.75,73912.8,-2.77,-3.55,-3.51,0,*59
1516806077.37,36570,6.75,73912.0,-2.77,-3.55,-3.51,0,*51
1516806078.64,36571,6.75,73914.8,-2.75,-3.51,-3.47,0,*51
1516806079.91,36572,6.75,73918.5,-2.75,-3.47,-3.47,0,*55
1516806081.19,36573,6.75,73914.5,-2.75,-3.51,-3.51,0,*54
1516806082.46,36574,6.75,73910.5,-2.75,-3.47,-3.51,0,*54
1516806083.73,36575,6.75,73914.5,-2.77,-3.51,-3.51,0,*50
1516806085.0,36576,6.75,73912.0,-2.75,-3.47,-3.47,0,*51
1516806086.27,36577,6.75,73916.5,-2.75,-3.47,-3.47,0,*50
1516806087.54,36578,6.75,73918.0,-2.75,-3.47,-3.47,0,*5F
1516806088.81,36579,6.75,73916.5,-2.75,-3.51,-3.51,0,*5E
1516806090.09,36580,6.75,73918.5,-2.75,-3.51,-3.51,0,*58
1516806091.36,36581,6.75,73922.0,-2.75,-3.47,-3.47,0,*59
1516806092.63,36582,6.75,73920.8,-2.75,-3.47,-3.47,0,*5A
1516806093.88,36583,6.75,73924.5,-2.75,-3.47,-3.39,0,*52
1516806095.11,36584,6.75,73922.5,-2.75,-3.39,-3.39,0,*5C
1516806096.34,36585,6.75,73924.8,-2.75,-3.35,-3.39,0,*51
1516806097.56,36586,6.75,73926.5,-2.75,-3.39,-3.39,0,*5E
1516806098.81,36587,6.75,73926.8,-2.75,-3.39,-3.47,0,*56
1516806100.08,36588,6.75,73928.3,-2.75,-3.47,-3.47,0,*50
1516806101.33,36589,6.75,73930.0,-2.75,-3.47,-3.39,0,*58
1516806102.58,36590,6.75,73926.3,-2.75,-3.47,-3.39,0,*50
1516806103.85,36591,6.75,73924.8,-2.75,-3.47,-3.47,0,*58
1516806105.12,36592,6.75,73928.3,-2.75,-3.47,-3.47,0,*5B
1516806106.39,36593,6.75,73924.5,-2.75,-3.47,-3.47,0,*5A
1516806107.66,36594,6.75,73926.8,-2.75,-3.51,-3.47,0,*5A
1516806108.94,36595,6.75,73920.0,-2.75,-3.47,-3.51,0,*5B
1516806110.18,36596,6.75,73926.3,-2.73,-3.51,-3.51,0,*59
1516806111.45,36597,6.75,73922.5,-2.75,-3.51,-3.51,0,*5E
1516806112.73,36598,6.75,73922.0,-2.75,-3.51,-3.51,0,*51
1516806114.0,36599,6.75,73920.0,-2.75,-3.51,-3.51,0,*50
1516806115.27,36600,6.75,73924.8,-2.75,-3.51,-3.51,0,*53
1516806116.55,36601,6.75,73922.0,-2.75,-3.47,-3.51,0,*55
1516806117.82,36602,6.75,73922.0,-2.75,-3.47,-3.47,0,*51
1516806119.09,36603,6.75,73922.3,-2.75,-3.47,-3.47,0,*50
1516806120.36,36604,6.75,73924.3,-2.75,-3.47,-3.51,0,*50
1516806121.63,36605,6.75,73928.0,-2.77,-3.51,-3.55,0,*50
1516806122.9,36606,6.75,73926.3,-2.75,-3.51,-3.47,0,*52
1516806124.17,36607,6.75,73926.3,-2.75,-3.47,-3.47,0,*54
1516806125.44,36608,6.75,73928.0,-2.77,-3.51,-3.51,0,*59
1516806126.66,36609,6.75,73932.5,-2.75,-3.39,-3.39,0,*5A
1516806127.93,36610,6.75,73932.8,-2.75,-3.47,-3.47,0,*52
1516806129.2,36611,6.75,73932.0,-2.75,-3.47,-3.47,0,*53
1516806130.48,36612,6.75,73928.8,-2.75,-3.51,-3.51,0,*50
1516806131.73,36613,6.75,73930.0,-2.75,-3.51,-3.39,0,*5F
1516806132.98,36614,6.75,73930.3,-2.75,-3.47,-3.35,0,*53
1516806134.21,36615,6.75,73934.3,-2.75,-3.39,-3.39,0,*57
1516806135.48,36616,6.75,73934.0,-2.77,-3.43,-3.43,0,*56
1516806136.67,36617,6.75,73930.3,-2.73,-3.39,-3.39,0,*53
1516806137.9,36618,6.75,73922.3,-2.75,-3.35,-3.39,0,*56
1516806139.13,36619,6.75,73928.5,-2.75,-3.39,-3.39,0,*5B
1516806140.4,36620,6.75,73928.0,-2.75,-3.51,-3.51,0,*51
1516806141.63,36621,6.75,73924.8,-2.75,-3.39,-3.39,0,*50
1516806142.9,36622,6.75,73930.5,-2.75,-3.47,-3.47,0,*53
1516806144.17,36623,6.75,73928.3,-2.75,-3.47,-3.47,0,*52
1516806145.4,36624,6.75,73930.8,-2.75,-3.39,-3.35,0,*59
1516806146.64,36625,6.75,73930.8,-2.75,-3.39,-3.47,0,*5D
1516806147.91,36626,6.75,73928.0,-2.75,-3.47,-3.47,0,*57
1516806149.17,36627,6.75,73924.3,-2.75,-3.47,-3.39,0,*5F
1516806150.41,36628,6.75,73924.8,-2.75,-3.39,-3.47,0,*50
1516806151.67,36629,6.75,73920.8,-2.75,-3.47,-3.35,0,*5D
1516806152.92,36630,6.75,73920.3,-2.75,-3.47,-3.39,0,*59
1516806154.17,36631,6.75,73922.0,-2.75,-3.47,-3.39,0,*58
1516806155.4,36632,6.75,73920.5,-2.75,-3.35,-3.39,0,*5E
1516806156.62,36633,6.75,73918.0,-2.75,-3.39,-3.39,0,*53
1516806157.85,36634,6.75,73916.3,-2.75,-3.35,-3.39,0,*58
1516806159.08,36635,6.75,73914.3,-2.77,-3.39,-3.35,0,*5B
1516806160.3,36636,6.75,73914.5,-2.75,-3.39,-3.39,0,*56
1516806161.53,36637,6.75,73914.0,-2.75,-3.39,-3.39,0,*57
1516806162.81,36638,6.75,73912.8,-2.75,-3.51,-3.51,0,*58
1516806164.07,36639,6.75,73908.3,-2.75,-3.47,-3.47,0,*59
1516806165.32,36640,6.75,73910.8,-2.73,-3.47,-3.51,0,*56
1516806166.59,36641,6.75,73924.5,-2.75,-3.51,-3.51,0,*56
1516806167.86,36642,6.75,73934.0,-2.77,-3.51,-3.51,0,*57
1516806169.13,36643,6.75,73930.5,-2.75,-3.51,-3.47,0,*53
1516806170.4,36644,6.75,73930.5,-2.75,-3.51,-3.47,0,*54
1516806171.67,36645,6.75,73928.3,-2.75,-3.51,-3.51,0,*52
1516806172.95,36646,6.75,73920.8,-2.75,-3.51,-3.51,0,*51
1516806174.22,36647,6.75,73914.5,-2.75,-3.63,-3.55,0,*55
1516806175.48,36648,6.75,73904.3,-2.75,-3.55,-3.55,0,*5F
1516806176.75,36649,6.75,73898.8,-2.77,-3.51,-3.51,0,*5C
1516806178.02,36650,6.75,73882.3,-2.77,-3.51,-3.51,0,*54
1516806179.29,36651,6.75,73882.8,-2.75,-3.47,-3.47,0,*57
1516806180.56,36652,6.75,73886.8,-2.75,-3.51,-3.51,0,*54
1516806181.83,36653,6.75,73888.0,-2.75,-3.55,-3.55,0,*55
1516806183.06,36654,6.75,73900.3,-2.77,-3.79,-3.83,0,*55
1516806184.33,36655,6.75,73912.3,-2.75,-3.67,-3.71,0,*54
1516806185.59,36656,6.75,73898.5,-2.77,-3.67,-3.67,0,*52
1516806186.86,36657,6.75,73894.3,-2.77,-3.59,-3.59,0,*53
1516806188.14,36658,6.75,73892.3,-2.77,-3.59,-3.59,0,*5C
1516806189.4,36659,6.75,73900.0,-2.77,-3.67,-3.67,0,*5D
1516806190.66,36660,6.75,73902.0,-2.77,-3.67,-3.67,0,*57
1516806191.93,36661,6.75,73906.8,-2.75,-3.55,-3.55,0,*54
1516806193.2,36662,6.75,73898.3,-2.77,-3.59,-3.59,0,*55
1516806194.47,36663,6.75,73900.0,-2.77,-3.59,-3.51,0,*5C
1516806195.73,36664,6.75,73898.0,-2.77,-3.55,-3.55,0,*53
1516806197.01,36665,6.75,73894.3,-2.75,-3.51,-3.51,0,*50
1516806198.27,36666,6.75,73890.8,-2.77,-3.51,-3.51,0,*51
1516806199.55,36667,6.75,73898.0,-2.75,-3.51,-3.51,0,*52
1516806200.82,36668,6.75,73900.5,-2.75,-3.51,-3.51,0,*5D
1516806202.09,36669,6.75,73896.5,-2.77,-3.59,-3.59,0,*5E
1516806203.37,36670,6.75,73898.8,-2.77,-3.59,-3.59,0,*56
1516806204.57,36671,6.75,73900.5,-2.79,-3.31,-3.31,0,*59
1516806205.79,36672,6.75,73902.5,-2.77,-3.27,-3.31,0,*53
1516806207.01,36673,6.75,73908.5,-2.77,-3.39,-3.39,0,*55
1516806208.23,36674,6.75,73908.3,-2.77,-3.31,-3.31,0,*52
1516806209.47,36675,6.75,73902.8,-2.77,-3.39,-3.43,0,*5E
1516806210.7,36676,6.75,73910.8,-2.77,-3.39,-3.39,0,*50
1516806211.94,36677,6.75,73914.5,-2.77,-3.39,-3.43,0,*5C
1516806213.16,36678,6.75,73914.5,-2.77,-3.39,-3.39,0,*5E
1516806214.43,36679,6.75,73912.8,-2.77,-3.43,-3.43,0,*5F
1516806215.7,36680,6.75,73912.8,-2.77,-3.51,-3.43,0,*5A
1516806216.96,36681,6.75,73912.5,-2.77,-3.55,-3.55,0,*58
1516806218.23,36682,6.75,73912.0,-2.75,-3.47,-3.47,0,*59
1516806219.5,36683,6.75,73910.0,-2.77,-3.51,-3.51,0,*5A
1516806220.77,36684,6.75,73910.5,-2.75,-3.51,-3.51,0,*5F
1516806222.05,36685,6.75,73912.3,-2.75,-3.51,-3.51,0,*5E
1516806223.31,36686,6.75,73908.5,-2.77,-3.55,-3.55,0,*5F
1516806224.57,36687,6.75,73908.0,-2.77,-3.51,-3.55,0,*5A
1516806225.83,36688,6.75,73906.0,-2.77,-3.55,-3.55,0,*51
1516806227.1,36689,6.81,73906.0,-2.77,-3.59,-3.55,0,*5C
1516806228.35,36690,6.75,73902.5,-2.79,-3.59,-3.59,0,*56
1516806229.6,36691,6.75,73902.0,-2.79,-3.67,-3.59,0,*5A
1516806230.83,36692,6.75,73902.8,-2.75,-3.75,-3.75,0,*58
1516806232.06,36693,6.75,73900.0,-2.77,-3.83,-3.83,0,*5B
1516806233.29,36694,6.75,73904.0,-2.77,-3.83,-3.83,0,*5C
1516806234.49,36695,6.75,73904.0,-2.79,-3.83,-3.91,0,*50
1516806235.7,36696,6.75,73912.8,-2.79,-3.83,-3.91,0,*53
1516806236.91,36697,6.75,73906.0,-2.79,-3.91,-3.83,0,*52
1516806238.13,36698,6.75,73902.3,-2.81,-3.83,-3.83,0,*59
1516806239.38,36699,6.75,73908.5,-2.81,-3.95,-4.01,0,*52
1516806240.65,36700,6.75,73900.8,-2.81,-4.01,-4.01,0,*59
1516806241.85,36701,6.75,73906.8,-2.79,-4.09,-4.09,0,*5F
1516806243.12,36702,6.75,73906.5,-2.81,-4.01,-4.01,0,*5B
1516806244.34,36703,6.75,73910.5,-2.81,-4.09,-4.09,0,*5A
1516806245.56,36704,6.75,73912.8,-2.81,-4.13,-4.09,0,*56
1516806246.78,36705,6.75,73916.0,-2.81,-4.09,-4.09,0,*5C
1516806247.97,36706,6.75,73920.3,-2.83,-4.05,-4.05,0,*5D
1516806249.19,36707,6.81,73926.0,-2.83,-4.05,-4.01,0,*58
1516806250.45,36708,6.75,73920.0,-2.85,-4.01,-3.91,0,*5B
1516806251.65,36709,6.75,73922.8,-2.83,-3.91,-3.91,0,*52
1516806252.91,36710,6.75,73924.5,-2.85,-3.91,-4.01,0,*52
1516806254.14,36711,6.75,73924.5,-2.85,-3.87,-3.79,0,*5C
1516806255.39,36712,6.81,73924.8,-2.85,-3.75,-3.67,0,*5D
1516806256.62,36713,6.75,73920.5,-2.85,-3.75,-3.75,0,*5F
1516806257.83,36714,6.75,73920.0,-2.83,-3.75,-3.79,0,*52
1516806259.03,36715,6.75,73922.3,-2.83,-3.75,-3.79,0,*53
1516806260.3,36716,6.75,73916.5,-2.85,-3.67,-3.67,0,*5A
1516806261.57,36717,6.75,73912.8,-2.85,-3.63,-3.67,0,*5F
1516806262.84,36718,6.75,73912.8,-2.85,-3.63,-3.63,0,*54
1516806264.11,36719,6.75,73918.3,-2.85,-3.63,-3.63,0,*55
1516806265.35,36720,6.75,73916.0,-2.83,-3.59,-3.59,0,*59
1516806266.62,36721,6.75,73916.3,-2.85,-3.63,-3.63,0,*5E
1516806267.86,36722,6.75,73918.0,-2.83,-3.59,-3.63,0,*52
1516806269.13,36723,6.75,73916.3,-2.85,-3.63,-3.63,0,*5C
1516806270.38,36724,6.75,73918.3,-2.83,-3.59,-3.59,0,*5D
1516806271.66,36725,6.75,73922.0,-2.85,-3.59,-3.59,0,*5A
1516806272.9,36726,6.75,73922.3,-2.83,-3.59,-3.59,0,*5F
1516806274.18,36727,6.75,73928.5,-2.85,-3.59,-3.59,0,*58
1516806275.45,36728,6.75,73928.0,-2.85,-3.59,-3.51,0,*5F
1516806276.7,36729,6.75,73924.0,-2.83,-3.59,-3.59,0,*50
1516806277.94,36730,6.75,73928.8,-2.83,-3.59,-3.63,0,*51
1516806279.21,36731,6.75,73928.0,-2.85,-3.59,-3.59,0,*5F
1516806280.46,36732,6.75,73922.0,-2.83,-3.59,-3.59,0,*5A
1516806281.71,36733,6.75,73926.0,-2.83,-3.51,-3.59,0,*53
1516806282.95,36734,6.75,73922.3,-2.83,-3.51,-3.51,0,*5C
1516806284.19,36735,6.75,73920.0,-2.83,-3.51,-3.47,0,*5A
1516806285.43,36736,6.75,73920.3,-2.83,-3.51,-3.47,0,*59
1516806286.69,36737,6.75,73916.5,-2.81,-3.47,-3.47,0,*5D
1516806287.95,36738,6.75,73916.5,-2.81,-3.47,-3.47,0,*52
1516806289.19,36739,6.75,73918.8,-2.83,-3.51,-3.47,0,*56
1516806290.43,36740,6.75,73916.5,-2.83,-3.51,-3.63,0,*5E
1516806291.68,36741,6.75,73914.3,-2.83,-3.59,-3.59,0,*5E
1516806292.92,36742,6.75,73918.0,-2.83,-3.59,-3.63,0,*54
1516806294.16,36743,6.75,73914.0,-2.83,-3.59,-3.47,0,*53
1516806295.43,36744,6.75,73916.5,-2.85,-3.51,-3.47,0,*5A
1516806296.69,36745,6.75,73914.3,-2.81,-3.47,-3.47,0,*58
1516806297.95,36746,6.75,73914.3,-2.81,-3.47,-3.43,0,*5F
1516806299.2,36747,6.75,73912.8,-2.83,-3.51,-3.51,0,*58
1516806300.44,36748,6.75,73914.3,-2.83,-3.51,-3.47,0,*50
1516806301.7,36749,6.81,73914.3,-2.81,-3.59,-3.47,0,*5B
1516806302.94,36750,6.75,73912.8,-2.83,-3.63,-3.59,0,*57
1516806304.19,36751,6.75,73910.0,-2.83,-3.59,-3.59,0,*5F
1516806305.44,36752,6.75,73910.0,-2.83,-3.59,-3.59,0,*5C
1516806306.71,36753,6.81,73914.5,-2.85,-3.59,-3.59,0,*5B
1516806307.96,36754,6.75,73912.0,-2.83,-3.63,-3.59,0,*53
1516806309.2,36755,6.75,73908.8,-2.83,-3.63,-3.63,0,*5B
1516806310.44,36756,6.75,73910.8,-2.83,-3.63,-3.63,0,*58
1516806311.69,36757,6.75,73914.8,-2.83,-3.63,-3.59,0,*50
1516806312.93,36758,6.75,73916.0,-2.83,-3.63,-3.59,0,*5F
1516806314.17,36759,6.75,73918.0,-2.83,-3.67,-3.63,0,*53
1516806315.41,36760,6.75,73922.0,-2.83,-3.67,-3.63,0,*59
1516806316.67,36761,6.75,73918.5,-2.85,-3.67,-3.63,0,*5E
1516806317.91,36762,6.81,73920.8,-2.83,-3.63,-3.63,0,*5F
1516806319.16,36763,6.75,73922.0,-2.83,-3.63,-3.59,0,*57
1516806320.4,36764,6.75,73924.3,-2.83,-3.63,-3.63,0,*59
1516806321.64,36765,6.81,73924.0,-2.83,-3.63,-3.63,0,*58
1516806322.88,36766,6.75,73922.3,-2.83,-3.63,-3.63,0,*5B
1516806324.12,36767,6.75,73920.0,-2.83,-3.63,-3.63,0,*5A
1516806325.36,36768,6.75,73924.0,-2.83,-3.59,-3.63,0,*5C
1516806326.61,36769,6.75,73926.8,-2.83,-3.59,-3.59,0,*54
1516806327.87,36770,6.75,73926.5,-2.81,-3.55,-3.59,0,*52
1516806329.12,36771,6.81,73928.3,-2.83,-3.63,-3.59,0,*54
1516806330.36,36772,6.81,73932.3,-2.83,-3.63,-3.63,0,*5E
1516806331.63,36773,6.75,73936.8,-2.85,-3.59,-3.51,0,*51
1516806332.87,36774,6.75,73928.5,-2.83,-3.67,-3.63,0,*5C
1516806334.1,36775,6.75,73930.0,-2.85,-3.79,-3.79,0,*5F
1516806335.3,36776,6.75,73926.3,-2.83,-3.87,-3.79,0,*5B
1516806336.49,36777,6.75,73922.8,-2.83,-3.87,-3.87,0,*5B
1516806337.72,36778,6.75,73920.3,-2.85,-3.87,-3.79,0,*53
1516806338.95,36779,6.81,73922.8,-2.85,-3.87,-3.87,0,*53
1516806340.14,36780,6.75,73916.3,-2.83,-3.87,-3.79,0,*52
1516806341.37,36781,6.81,73916.0,-2.85,-3.87,-3.79,0,*55
1516806342.6,36782,6.75,73916.0,-2.85,-3.79,-3.75,0,*5B
1516806343.84,36783,6.75,73918.5,-2.83,-3.67,-3.67,0,*50
1516806345.11,36784,6.75,73914.8,-2.85,-3.67,-3.67,0,*51
1516806346.38,36785,6.75,73918.8,-2.85,-3.59,-3.59,0,*50
1516806347.65,36786,6.75,73914.5,-2.85,-3.63,-3.63,0,*53
1516806348.92,36787,6.75,73914.5,-2.85,-3.51,-3.47,0,*55
1516806350.19,36788,6.75,73916.3,-2.85,-3.51,-3.47,0,*5A
1516806351.46,36789,6.75,73912.5,-2.85,-3.51,-3.51,0,*5C
1516806352.73,36790,6.75,73916.0,-2.85,-3.51,-3.51,0,*54
1516806354.0,36791,6.75,73914.3,-2.85,-3.47,-3.47,0,*55
1516806355.28,36792,6.75,73914.3,-2.85,-3.47,-3.51,0,*51
1516806356.52,36793,6.75,73910.0,-2.83,-3.59,-3.59,0,*51
1516806357.79,36794,6.81,73908.5,-2.85,-3.59,-3.63,0,*59
1516806359.07,36795,6.81,73910.8,-2.85,-3.63,-3.59,0,*58
1516806360.31,36796,6.81,73910.5,-2.83,-3.59,-3.59,0,*54
1516806361.58,36797,6.75,73908.8,-2.85,-3.67,-3.67,0,*53
1516806362.79,36798,6.75,73908.5,-2.83,-3.75,-3.75,0,*5A
1516806363.99,36799,6.81,73910.3,-2.87,-3.95,-4.05,0,*51
1516806365.22,36800,6.75,73906.5,-2.85,-4.05,-4.13,0,*55
1516806366.44,36801,6.81,73908.0,-2.85,-4.05,-4.13,0,*54
1516806367.67,36802,6.75,73904.3,-2.85,-4.05,-4.05,0,*50
1516806368.89,36803,6.75,73904.3,-2.85,-4.05,-4.05,0,*51
1516806370.09,36804,6.75,73904.0,-2.87,-4.05,-4.09,0,*58
1516806371.29,36805,6.81,73910.5,-2.87,-4.05,-4.05,0,*55
1516806372.51,36806,6.75,73906.0,-2.89,-4.09,-4.09,0,*58
1516806373.73,36807,6.81,73906.3,-2.89,-4.09,-4.17,0,*56
1516806374.94,36808,6.81,73902.0,-2.89,-4.05,-3.95,0,*58
1516806376.14,36809,6.75,73898.0,-2.87,-4.05,-4.05,0,*59
1516806377.37,36810,6.75,73896.0,-2.89,-3.95,-3.95,0,*5F
1516806378.6,36811,6.81,73896.5,-2.89,-3.95,-3.91,0,*5A
1516806379.83,36812,6.75,73894.3,-2.89,-3.83,-3.91,0,*5E
1516806381.04,36813,6.75,73896.8,-2.91,-3.95,-3.91,0,*51
1516806382.24,36814,6.75,73898.8,-2.91,-3.95,-3.87,0,*51
1516806383.49,36815,6.75,73898.8,-2.89,-3.83,-3.71,0,*57
1516806384.75,36816,6.75,73898.5,-2.89,-3.71,-3.71,0,*59
1516806386.01,36817,6.81,73898.5,-2.89,-3.71,-3.71,0,*58
1516806387.28,36818,6.75,73894.3,-2.89,-3.71,-3.67,0,*50
1516806388.54,36819,6.81,73894.0,-2.89,-3.67,-3.67,0,*56
1516806389.8,36820,6.75,73888.5,-2.89,-3.67,-3.63,0,*58
1516806391.07,36821,6.75,73890.5,-2.89,-3.63,-3.67,0,*59
1516806392.33,36822,6.75,73896.0,-2.89,-3.67,-3.67,0,*5E
1516806393.6,36823,6.81,73898.0,-2.89,-3.67,-3.67,0,*5F
1516806394.86,36824,6.75,73896.8,-2.89,-3.67,-3.63,0,*5C
1516806396.13,36825,6.75,73896.8,-2.89,-3.63,-3.67,0,*5D
1516806397.39,36826,6.81,73902.3,-2.89,-3.63,-3.67,0,*5E
1516806398.66,36827,6.75,73898.8,-2.89,-3.67,-3.67,0,*5B
1516806399.92,36828,6.81,73906.5,-2.89,-3.67,-3.63,0,*50
1516806401.19,36829,6.81,73908.8,-2.89,-3.63,-3.63,0,*55
1516806402.46,36830,6.75,73904.8,-2.89,-3.63,-3.63,0,*5D
1516806403.69,36831,6.75,73906.5,-2.87,-3.55,-3.55,0,*52
1516806404.94,36832,6.75,73906.0,-2.87,-3.55,-3.51,0,*55
1516806406.2,36833,6.81,73904.5,-2.89,-3.55,-3.55,0,*5E
1516806407.47,36834,6.75,73904.8,-2.89,-3.51,-3.51,0,*59
1516806408.71,36835,6.75,73904.3,-2.87,-3.55,-3.51,0,*52
1516806409.95,36836,6.81,73904.3,-2.87,-3.55,-3.55,0,*55
1516806411.19,36837,6.75,73904.8,-2.87,-3.55,-3.51,0,*50
1516806412.43,36838,6.81,73904.5,-2.87,-3.63,-3.55,0,*5E
1516806413.7,36839,6.81,73906.0,-2.89,-3.55,-3.55,0,*54
1516806414.96,36840,6.81,73904.5,-2.89,-3.55,-3.55,0,*5A
1516806416.2,36841,6.75,73906.5,-2.87,-3.71,-3.67,0,*52
1516806417.46,36842,6.81,73906.3,-2.89,-3.71,-3.71,0,*58
1516806418.73,36843,6.75,73904.3,-2.89,-3.71,-3.71,0,*59
1516806419.97,36844,6.81,73904.5,-2.89,-3.79,-3.71,0,*56
1516806421.24,36845,6.81,73902.3,-2.89,-3.67,-3.67,0,*5F
1516806422.5,36846,6.75,73896.8,-2.89,-3.63,-3.67,0,*58
1516806423.77,36847,6.81,73902.5,-2.89,-3.63,-3.55,0,*58
1516806425.01,36848,6.75,73898.0,-2.87,-3.51,-3.55,0,*58
1516806426.28,36849,6.75,73898.3,-2.89,-3.51,-3.55,0,*57
1516806427.54,36850,6.75,73900.8,-2.89,-3.55,-3.51,0,*5F
1516806428.81,36851,6.81,73906.5,-2.89,-3.51,-3.43,0,*59
1516806430.06,36852,6.75,73904.5,-2.87,-3.51,-3.43,0,*54
1516806431.32,36853,6.81,73904.5,-2.89,-3.51,-3.55,0,*5C
1516806432.52,36854,6.81,73906.0,-2.87,-3.31,-3.39,0,*59
1516806433.73,36855,6.75,73904.3,-2.87,-3.27,-3.27,0,*50
1516806434.95,36856,6.75,73904.0,-2.85,-3.15,-3.11,0,*55
1516806436.15,36857,6.81,73906.3,-2.87,-3.07,-3.19,0,*5D
1516806437.39,36858,6.75,73900.3,-2.87,-3.43,-3.43,0,*5D
1516806438.63,36859,6.81,73904.0,-2.87,-3.43,-3.51,0,*5F
1516806439.88,36860,6.81,73902.8,-2.87,-3.43,-3.43,0,*56
1516806441.1,36861,6.81,73906.0,-2.87,-3.39,-3.43,0,*5A
1516806442.32,36862,6.75,73902.5,-2.87,-3.39,-3.43,0,*59
1516806443.57,36863,6.75,73898.3,-2.87,-3.43,-3.43,0,*55
1516806444.83,36864,6.81,73902.8,-2.85,-3.51,-3.47,0,*57
1516806446.11,36865,6.75,73896.8,-2.85,-3.51,-3.51,0,*51
1516806447.38,36866,6.81,73896.3,-2.85,-3.63,-3.63,0,*52
1516806448.64,36867,6.75,73900.8,-2.89,-3.67,-3.67,0,*5F
1516806449.88,36868,6.81,73904.0,-2.87,-3.67,-3.67,0,*5E
1516806451.12,36869,6.81,73906.0,-2.87,-3.67,-3.67,0,*5F
1516806452.36,36870,6.81,73906.0,-2.87,-3.67,-3.67,0,*57
1516806453.6,36871,6.81,73906.0,-2.87,-3.67,-3.67,0,*56
1516806454.85,36872,6.81,73904.3,-2.87,-3.63,-3.63,0,*55
1516806456.09,36873,6.81,73908.5,-2.87,-3.55,-3.51,0,*50
1516806457.36,36874,6.81,73910.0,-2.89,-3.55,-3.51,0,*59
1516806458.6,36875,6.81,73914.3,-2.87,-3.51,-3.51,0,*52
1516806459.87,36876,6.81,73914.3,-2.85,-3.51,-3.51,0,*53
1516806461.12,36877,6.81,73914.3,-2.87,-3.43,-3.43,0,*50
1516806462.36,36878,6.81,73910.8,-2.87,-3.51,-3.43,0,*5C
1516806463.63,36879,6.81,73918.0,-2.85,-3.47,-3.47,0,*5C
1516806464.87,36880,6.81,73914.0,-2.83,-3.51,-3.51,0,*5C
1516806466.15,36881,6.75,73912.5,-2.85,-3.51,-3.51,0,*5B
1516806467.42,36882,6.81,73918.8,-2.85,-3.59,-3.59,0,*58
1516806468.66,36883,6.81,73916.5,-2.87,-3.67,-3.55,0,*5A
1516806469.93,36884,6.81,73918.3,-2.85,-3.51,-3.47,0,*59
1516806471.2,36885,6.75,73914.5,-2.85,-3.47,-3.47,0,*5F
1516806472.44,36886,6.75,73916.8,-2.83,-3.47,-3.47,0,*5A
1516806473.71,36887,6.81,73920.8,-2.85,-3.51,-3.51,0,*5D
1516806474.98,36888,6.75,73918.0,-2.85,-3.51,-3.51,0,*52
1516806476.26,36889,6.81,73922.5,-2.85,-3.59,-3.59,0,*53
1516806477.54,36890,6.81,73916.3,-2.85,-3.59,-3.59,0,*5B
1516806478.81,36891,6.81,73916.0,-2.85,-3.59,-3.59,0,*5A
1516806480.09,36892,6.81,73914.5,-2.85,-3.59,-3.59,0,*59
1516806481.36,36893,6.81,73918.5,-2.85,-3.47,-3.47,0,*58
1516806482.63,36894,6.75,73914.8,-2.85,-3.47,-3.47,0,*5F
1516806483.9,36895,6.81,73916.3,-2.85,-3.47,-3.47,0,*5E
1516806485.17,36896,6.81,73914.3,-2.85,-3.47,-3.51,0,*5A
1516806486.41,36897,6.81,73912.8,-2.83,-3.47,-3.59,0,*55
1516806487.65,36898,6.81,73914.3,-2.83,-3.51,-3.47,0,*52
1516806488.92,36899,6.75,73912.3,-2.85,-3.51,-3.51,0,*52
1516806490.16,36900,6.81,73918.8,-2.83,-3.63,-3.67,0,*51
1516806491.4,36901,6.75,73912.8,-2.85,-3.75,-3.75,0,*52
1516806492.63,36902,6.81,73914.3,-2.85,-3.75,-3.75,0,*51
1516806493.87,36903,6.75,73910.8,-2.85,-3.75,-3.75,0,*50
1516806495.14,36904,6.81,73912.8,-2.85,-3.67,-3.67,0,*57
1516806496.41,36905,6.81,73914.3,-2.85,-3.63,-3.59,0,*5F
1516806497.65,36906,6.81,73912.5,-2.87,-3.55,-3.51,0,*53
1516806498.92,36907,6.81,73908.0,-2.85,-3.51,-3.51,0,*54
1516806500.2,36908,6.81,73908.3,-2.85,-3.63,-3.59,0,*52
1516806501.48,36909,6.81,73906.3,-2.85,-3.59,-3.59,0,*5A
1516806502.75,36910,6.81,73906.5,-2.85,-3.59,-3.59,0,*52
1516806504.02,36911,6.81,73910.5,-2.85,-3.59,-3.47,0,*5C
1516806505.27,36912,6.81,73910.8,-2.87,-3.51,-3.55,0,*56
1516806506.54,36913,6.81,73908.5,-2.85,-3.51,-3.59,0,*59
1516806507.81,36914,6.81,73914.5,-2.85,-3.59,-3.51,0,*5E
1516806509.09,36915,6.81,73914.5,-2.85,-3.59,-3.59,0,*57
1516806510.36,36916,6.81,73916.8,-2.85,-3.59,-3.63,0,*5D
1516806511.63,36917,6.81,73916.0,-2.85,-3.63,-3.63,0,*55
1516806512.91,36918,6.81,73916.8,-2.85,-3.59,-3.59,0,*5A
1516806514.18,36919,6.81,73918.8,-2.85,-3.59,-3.59,0,*5B
1516806515.45,36920,6.81,73918.5,-2.85,-3.51,-3.47,0,*56
1516806516.72,36921,6.81,73920.8,-2.85,-3.47,-3.51,0,*57
1516806518.0,36922,6.81,73918.8,-2.85,-3.59,-3.59,0,*53
1516806519.25,36923,6.81,73918.5,-2.87,-3.63,-3.67,0,*54
1516806520.49,36924,6.81,73920.3,-2.87,-3.67,-3.67,0,*57
1516806521.73,36925,6.81,73918.5,-2.87,-3.67,-3.63,0,*52
1516806522.97,36926,6.81,73920.5,-2.87,-3.55,-3.55,0,*55
1516806524.21,36927,6.81,73920.3,-2.87,-3.63,-3.51,0,*55
1516806525.48,36928,6.81,73920.3,-2.89,-3.55,-3.55,0,*55
1516806526.75,36929,6.81,73922.5,-2.85,-3.51,-3.51,0,*58